Weather Roundup
Issued by NWS Chicago, IL

Home | Current Version | Previous Version | Graphics & Text | Print | Product List | Glossary On
Versions: 1 2 3 4 5 6 7 8 9 10 11 12 13 14 15 16 17 18 19 20 21 22 23 24 25 26 27 28 29 30 31 32 33 34 35 36 37 38 39 40 41 42 43 44 45 46 47 48 49 50
000
NZUS59 KLOT 221600
HRRLOT

CHICAGO AREA WEATHER ROUNDUP
NATIONAL WEATHER SERVICE CHICAGO/ROMEOVILLE IL
1100 AM CDT WED OCT 22 2014

NOTE: "FAIR" INDICATES FEW OR NO CLOUDS BELOW 12,000 FEET WITH NO
SIGNIFICANT WEATHER AND/OR OBSTRUCTIONS TO VISIBILITY.

* THESE STATIONS ARE NOT UNDER NWS QUALITY CONTROL. THEY ALSO MAY NOT
  REPORT WEATHER SUCH AS PRECIPITATION OR FOG.

ILZ005-006-012>014-019>023-221700-
NORTHEAST ILLINOIS

CITY           SKY/WX    TMP DP  RH WIND       PRES   REMARKS
OHARE          MOSUNNY   50  38  63 S5        30.37R
MIDWAY         MOSUNNY   51  38  60 E6        30.37S
AURORA         SUNNY     51  39  63 VRB3      30.37R
WAUKEGAN       PTSUNNY   51  40  65 E9        30.36R
DUPAGE AIRPORT MOSUNNY   53  41  63 VRB3      30.35S
WHEELING       PTSUNNY   53  40  61 SE7       30.38R
NORTHERLY IS     N/A     50  40  68 E5          N/A
$$

WIZ051-052-058>065-066-070>072-221700-
SOUTHEAST WISCONSIN

CITY           SKY/WX    TMP DP  RH WIND       PRES   REMARKS
MILWAUKEE      PTSUNNY   50  41  71 SE6       30.38R
KENOSHA*       PTSUNNY   51  42  71 E3        30.37R
RACINE*        PTSUNNY   50  39  66 VRB6      30.39R
WAUKESHA       PTSUNNY   48  43  81 SE7       30.38R
$$

INZ001>003-010>013-019-020-221700-
NORTHWEST INDIANA

CITY           SKY/WX    TMP DP  RH WIND       PRES   REMARKS
GARY*          MOSUNNY   50  36  57 CALM      30.38S
MICHIGAN CITY* NOT AVBL
RENSSELAER*    NOT AVBL
$$

LMZ740>746-221700-
SOUTHERN LAKE MICHIGAN

STATION/POSITION TIME  SKY/WX   TEMP WIND        PRES    VSBY
                                AIR  DIR/SP/G
                 (UTC)          (F)  (DEG/KT/KT) (MB)    (MI)
HARRISON CRIB    NOT AVBL
BURNHAM HARBOR   1600            50  120/  4/  6   N/A
CALUMET HARBOR   1500            47   70/  5/  7 1027.4R
BURNS HARBOR     NOT AVBL
MICHIGAN CITY    1500            45   90/  6/  7   N/A
$$

ABBREVIATIONS USED IN REMARKS
   TC - TEMPERATURE IN CELSIUS
  WCI - WIND CHILL INDEX
   HX - HEAT INDEX
  VSB - VISIBILITY
$$



USA.gov is the U.S. government's official web portal to all federal, state and local government web resources and services.